Location: *
(45.5224°N, 122.7471°W)
Time: 22:28:57
(UTC+00:00)

SeaSat 1 - Pass Details

Date: 09 April 2020
Orbit: 745 x 746 km, 108.0° (Epoch: 02 June)

Event Time Altitude Azimuth Distance (km) Brightness Sun altitude
Rises 12:49:48 0° 154° (SSE) 3,173 5.8 -8.5°
Reaches altitude 10° 12:52:03 10° 156° (SSE) 2,254 5.0 -8.1°
Maximum altitude 12:56:57 78° 242° (WSW) 766 2.4 -7.3°
Drops below altitude 10° 13:01:54 10° 330° (NNW) 2,270 4.8 -6.5°
Sets 13:04:11 0° 332° (NNW) 3,198 5.6 -6.1°
